Regional Weather Roundup
Issued by NWS

Home | Current Version | Previous Version | Text Only | Print | Product List | Glossary On
Versions: 1 2 3 4 5 6 7 8 9 10 11 12 13 14 15 16 17 18 19 20 21 22 23 24 25 26 27 28 29 30 31 32 33 34 35 36 37 38 39 40 41 42 43 44 45 46 47 48 49 50
000
ASUS43 KBIS 010410
RWRND

NORTH DAKOTA REGIONAL WEATHER ROUNDUP
NATIONAL WEATHER SERVICE BISMARCK ND
1100 PM CDT FRI OCT 31 2014

NOTE: "FAIR" INDICATES FEW OR NO CLOUDS BELOW 12,000 FEET WITH NO
SIGNIFICANT WEATHER AND/OR OBSTRUCTIONS TO VISIBILITY.


NDZ001>003-009>011-017-010500-
NORTHWEST NORTH DAKOTA

CITY           SKY/WX    TMP DP  RH WIND       PRES   REMARKS
WILLISTON      CLEAR     40  17  39 SE14G25   29.90F
MINOT          MOCLDY    33  13  43 SE14      30.04F
MINOT AFB      MOCLDY    33  15  48 S16       30.03F
$$

NDZ018>021-031>035-040>046-010500-
SOUTHWEST NORTH DAKOTA

CITY           SKY/WX    TMP DP  RH WIND       PRES   REMARKS
BISMARCK       MOCLDY    34  14  43 SE18      30.12F
DICKINSON      CLEAR     34  14  43 SE23      29.92F
GARRISON         N/A     35  18  49 S17G39    30.04F
HETTINGER ARPT CLEAR     36  13  38 SE16      29.96F
$$

NDZ004>008-012>016-024-026-027-054-010500-
NORTHEAST NORTH DAKOTA

CITY           SKY/WX    TMP DP  RH WIND       PRES   REMARKS
GRAND FORKS    CLOUDY    34  20  56 S14       30.33F
GRND FRKS AFB  CLOUDY    33  20  58 S16G25    30.31F
DEVILS LAKE    MOCLDY    34  18  51 S20G26    30.19F
$$

NDZ022-023-025-028>030-036>039-047>053-010500-
SOUTHEAST NORTH DAKOTA

CITY           SKY/WX    TMP DP  RH WIND       PRES   REMARKS
FARGO          MOCLDY    31  20  63 S16G23    30.37F WCI  20
JAMESTOWN      CLEAR     28  18  66 S14       30.23F WCI  17
$$




USA.gov is the U.S. government's official web portal to all federal, state and local government web resources and services.